Yuma MCAS, AZ

12:45 PM MST on September 19, 2017 (GMT -0700)
Yuma Marine Corps Air Station

Weather History for KNYL - January, 2013

Change the Weather History Date:

Sunday, January 13, 2013

  Actual Average Record
Temperature  
Mean Temperature 46 °F 58 °F  
Max Temperature 55 °F 69 °F 81 °F (1959)
Min Temperature 36 °F 48 °F 28 °F (1963)
Degree Days  
Heating Degree Days 19 7  
Month to date heating degree days 161 95  
Since 1 July heating degree days 398 399  
Cooling Degree Days 0 0  
Month to date cooling degree days 0 0  
Year to date cooling degree days 0 0  
Moisture  
Dew Point 6 °F    
Average Humidity 22    
Maximum Humidity 32    
Minimum Humidity 11    
Precipitation  
Precipitation 0.00 in 0.02 in 0.87 in (1887)
Month to date precipitation 0.00 0.19  
Year to date precipitation 0.00 0.19  
Sea Level Pressure  
Sea Level Pressure 30.12 in    
Wind  
Wind Speed 6 mph (NNE)    
Max Wind Speed 15 mph    
Max Gust Speed 21 mph    
Visibility 10 miles    
Events      
T = Trace of Precipitation, MM = Missing Value Source: NWS Daily Summary

Daily Weather History Graph

Daily Weather History Graph

Search for Another Location

Airport or City:

Trip Planner

Search our weather history database for the weather conditions in past years. The results will help you decide how hot, cold, wet, or windy it might be!

Date:

Astronomy

Jan. 13, 2013 Rise Set
Actual Time 7:40 AM MST 5:53 PM MST
Civil Twilight 7:14 AM MST 6:20 PM MST
Nautical Twilight 6:43 AM MST 6:50 PM MST
Astronomical Twilight 6:14 AM MST 7:20 PM MST
Moon 8:51 AM MST (1/13) 8:26 PM MST (1/13)
Length of Visible Light 11h 06m
Length of Day
10h 12m
Waxing Crescent, 5% of the Moon is Illuminated
Jan 13
Waxing Crescent
Jan 18
First Quarter
Jan 26
Full
Feb 3
Last Quarter
Feb 10
New

Hourly Weather History & Observations

Time (MST) Temp. Windchill Dew Point Humidity Pressure Visibility Wind Dir Wind Speed Gust Speed Precip Events Conditions
12:55 AM 39.0 °F - 12.0 °F 33% 30.14 in 10.0 mi Calm Calm - N/A   Clear
1:55 AM 39.0 °F 36.8 °F 10.9 °F 32% 30.14 in 10.0 mi NE 3.5 mph - N/A   Clear
2:55 AM 37.9 °F 34.4 °F 9.0 °F 30% 30.13 in 10.0 mi ENE 4.6 mph - N/A   Clear
3:55 AM 37.9 °F 32.1 °F 7.0 °F 28% 30.14 in 10.0 mi NNE 8.1 mph - N/A   Clear
4:55 AM 37.9 °F 30.9 °F 7.0 °F 28% 30.13 in 10.0 mi NNE 10.4 mph - N/A   Partly Cloudy
5:55 AM 37.9 °F 32.1 °F 7.0 °F 28% 30.13 in 10.0 mi NNE 8.1 mph - N/A   Scattered Clouds
6:55 AM 37.0 °F 30.4 °F 8.1 °F 30% 30.16 in 10.0 mi NNE 9.2 mph - N/A   Mostly Cloudy
7:55 AM 36.0 °F 31.1 °F 8.1 °F 31% 30.17 in 10.0 mi ENE 5.8 mph - N/A   Mostly Cloudy
8:55 AM 39.0 °F 34.8 °F 6.1 °F 26% 30.19 in 10.0 mi NE 5.8 mph - N/A   Scattered Clouds
9:55 AM 43.0 °F 39.5 °F 8.1 °F 24% 30.19 in 10.0 mi NNE 5.8 mph - N/A   Scattered Clouds
10:55 AM 48.0 °F - 8.1 °F 20% 30.19 in 10.0 mi NNE 3.5 mph - N/A   Partly Cloudy
11:55 AM 52.0 °F - 5.0 °F 15% 30.15 in 10.0 mi NNE 11.5 mph - N/A   Partly Cloudy
12:55 PM 53.1 °F - 3.9 °F 14% 30.12 in 10.0 mi NE 4.6 mph - N/A   Partly Cloudy
1:55 PM 54.0 °F - 1.9 °F 12% 30.10 in 10.0 mi North 8.1 mph - N/A   Partly Cloudy
2:55 PM 54.0 °F - 3.0 °F 13% 30.08 in 10.0 mi Calm Calm - N/A   Partly Cloudy
3:55 PM 55.0 °F - 1.9 °F 12% 30.08 in 10.0 mi Variable 5.8 mph - N/A   Partly Cloudy
4:55 PM 54.0 °F - 1.9 °F 12% 30.08 in 10.0 mi NNE 6.9 mph - N/A   Scattered Clouds
5:55 PM 51.1 °F - 3.0 °F 14% 30.07 in 10.0 mi NNE 4.6 mph - N/A   Scattered Clouds
6:55 PM 48.0 °F - 6.1 °F 18% 30.08 in 10.0 mi North 4.6 mph - N/A   Scattered Clouds
7:55 PM 48.0 °F - 7.0 °F 19% 30.08 in 10.0 mi North 6.9 mph - N/A   Mostly Cloudy
8:55 PM 46.9 °F - 7.0 °F 20% 30.10 in 10.0 mi NNE 6.9 mph - N/A   Overcast
9:55 PM 46.9 °F - 6.1 °F 19% 30.10 in 10.0 mi NNE 5.8 mph - N/A   Overcast
10:55 PM 48.0 °F - 6.1 °F 18% 30.11 in 10.0 mi North 8.1 mph - N/A   Mostly Cloudy
11:55 PM 46.9 °F - 3.9 °F 17% 30.13 in 10.0 mi North 11.5 mph 20.7 mph N/A   Overcast